Regional Weather Roundup
Issued by NWS Northern Indiana

Home | Current Version | Previous Version | Text Only | Print | Product List | Glossary Off
Versions: 1 2 3 4 5 6 7 8 9 10 11 12 13 14 15 16 17 18 19 20 21 22 23 24 25 26 27 28 29 30 31 32 33 34 35 36 37 38 39 40 41 42 43 44 45 46 47 48 49 50

000
ASUS43 KIWX 200710
RWRIWX

KIWX WEATHER ROUNDUP
NATIONAL WEATHER SERVICE NORTHERN INDIANA
200 AM EST MON NOV 20 2017

NOTE: "FAIR" INDICATES FEW OR NO CLOUDS BELOW 12,000 FEET WITH NO
SIGNIFICANT WEATHER AND/OR OBSTRUCTIONS TO VISIBILITY.

* THESE STATIONS ARE NOT UNDER NWS QUALITY CONTROL. THEY ALSO MAY NOT
  REPORT WEATHER SUCH AS PRECIPITATION OR FOG.

INZ001>027-200800-
NORTHERN INDIANA

CITY           SKY/WX    TMP DP  RH WIND       PRES   REMARKS
GARY*          CLEAR     31  22  67 S3        30.06F
VALPARAISO     CLEAR     30  22  72 SW9       30.07F WCI  22
MICHIGAN CITY* CLEAR     27  21  80 SW6       30.06F WCI  20
LAPORTE*       PTCLDY    25  21  85 SW6       30.07F WCI  18
KNOX*          CLEAR     27  23  86 S6        30.08F WCI  20
SOUTH BEND     PTCLDY    25  22  88 S8        30.06F WCI  16
GOSHEN         CLEAR     27  19  72 SW8       30.07F WCI  19
MONTICELLO*    CLOUDY    27  24  87 S7        30.11F WCI  20
LOGANSPORT*    CLEAR     28  25  86 S9        30.12F WCI  20
ROCHESTER*     CLEAR     30  25  80 SW7       30.09F WCI  23
WARSAW*        PTCLDY    28  21  74 SW7       30.09S WCI  21
AUBURN*        CLEAR     28  21  74 SW6       30.08S WCI  22
FORT WAYNE     PTCLDY    29  23  78 SW9       30.11R WCI  20
HUNTINGTON*    CLEAR     27  22  82 SW7       30.11S WCI  20
PERU/GRISSOM   CLEAR     25  24  94 SW8       30.11F WCI  16
MARION*        CLEAR     28  24  85 SW9       30.13F WCI  19

$$
INZ028>050-200800-
CENTRAL INDIANA

CITY           SKY/WX    TMP DP  RH WIND       PRES   REMARKS
LAFAYETTE      CLOUDY    27  23  85 SW3       30.13F
KOKOMO*        CLEAR     26  23  88 SW8       30.13F WCI  18
MUNCIE*        CLEAR     28  21  75 SW7       30.14R WCI  21
INDIANAPOLIS   CLEAR     25  20  81 SW6       30.17S WCI  18

$$
MIZ043>046-050>051-056>058-064>065-071>073-077>080-200800-
SOUTHWEST LOWER MICHIGAN

CITY           SKY/WX    TMP DP  RH WIND       PRES   REMARKS
BATTLE CREEK   MOCLDY    28  23  81 SW10      30.01F WCI  19
BENTON HARBOR  CLEAR     37  26  64 SW14      30.03F
COLDWATER*     CLEAR     28  23  82 SW10      30.04S WCI  18
HILLSDALE*     CLEAR     28  21  74 SW6       30.02S WCI  22
HOLLAND        CLOUDY    38  28  67 W16       29.99F
GRAND RAPIDS   CLOUDY    34  28  79 SW7       29.97F WCI  28
KALAMAZOO      PTCLDY    28  21  75 SW12      30.02F WCI  18
STURGIS*       CLEAR     28  21  74 SW8       30.05R WCI  20
THREE RIVERS*  FAIR      29  23  76 SW6       30.05F WCI  23

$$
OHZ001>008-015>018-024>025-200800-
NORTHWEST OHIO

CITY           SKY/WX    TMP DP  RH WIND       PRES   REMARKS
WAUSEON*       FAIR      28  25  86 SW14      30.05S WCI  17
DEFIANCE       CLEAR     28  21  75 SW8       30.09R WCI  20
FINDLAY        CLEAR     29  22  75 SW9       30.08S WCI  20
TOLEDO EXPRESS MOCLDY    31  23  72 W13       30.06S WCI  21
TOLEDO METCALF CLOUDY    31  23  72 SW10      30.07S WCI  22
LIMA           CLEAR     27  23  85 SW9       30.10S WCI  18

$$
AND FOR LAKE MICHIGAN COASTAL AND OPEN LAKE BUOY OBSERVATIONS

STATION/POSITION TEMP    WIND        PRES    VSBY  WAVE
                 AIR SEA DIR/SP/G                  HT/PER
                 (F)     (DEG/KT/KT) (MB)    (MI)  (FT/S)
CALUMET HARBOR    33     220/  7/ 12 1016.6F
MICHIGAN CITY     30     190/ 10/ 11   N/A
BURNS HARBOR      32     210/  9/ 13 1018.3F
SAINT JOSEPH      40     240/ 23/ 28 1016.9
SOUTH LAKE BUOY   40 49  280/ 21/ 23 1016.3          5/ 5

$$
&&




USA.gov is the U.S. government's official web portal to all federal, state and local government web resources and services.